Theta_e
341 341 341 341 338 336 336 337 338 338 337 337 338 339 339 338 337 336 334 333 333 335 334 329 331 331 329 332 335 336 336 333 331 330 329 330 332 333 332 330 330 328 323 316 314 320 328 332 333 334 335 335 335 333 332 332 333 332 332 330 328 329
342 342 342 342 339 336 334 337 338 337 337 335 336 337 337 336 336 337 335 334 335 340 339 334 336 335 330 330 330 333 336 334 331 330 329 329 331 333 332 331 330 328 324 316 315 325 332 333 334 335 336 336 336 336 335 335 334 333 332 330 328 329
343 343 343 342 341 337 335 337 337 337 338 336 335 334 334 335 337 338 337 337 338 341 341 339 339 336 335 335 329 328 333 333 332 330 329 329 331 333 332 331 330 330 331 326 321 325 332 334 335 336 336 336 336 336 335 335 334 333 332 329 325 328
343 343 342 342 341 339 337 339 339 338 339 338 336 335 335 335 337 338 338 339 340 341 341 340 340 337 337 338 334 329 328 331 332 330 329 328 330 332 332 331 330 332 336 336 332 329 330 332 334 336 336 335 336 336 335 334 333 332 331 327 324 328
343 343 342 342 340 338 338 340 341 340 339 339 337 337 337 335 336 337 338 339 340 342 341 340 339 338 339 338 336 333 326 326 331 330 329 328 329 332 332 331 330 333 336 337 337 336 332 331 334 337 336 336 336 335 334 334 333 332 330 327 326 329
343 343 342 341 339 338 339 340 341 340 339 339 338 339 338 337 338 338 338 339 341 342 341 340 339 338 339 337 337 335 328 324 328 331 330 330 334 333 333 333 331 332 336 337 338 338 335 332 335 336 335 336 335 335 334 334 334 332 330 327 326 328
342 343 342 341 341 340 340 340 340 341 340 340 340 340 340 339 339 339 338 339 341 342 341 340 340 339 338 337 337 336 332 328 328 331 330 332 337 335 335 337 333 332 334 338 338 336 334 333 334 335 334 335 335 334 333 333 334 332 330 327 323 325
343 342 342 342 342 340 340 340 340 340 341 340 341 340 340 340 339 340 339 340 340 341 342 340 340 340 337 337 337 336 334 333 331 332 331 332 336 335 336 338 336 334 335 337 337 335 334 333 335 334 333 335 334 334 333 332 333 331 331 328 322 322
343 342 342 342 343 341 340 340 340 340 341 340 341 341 341 340 339 339 340 340 340 341 342 341 340 339 338 336 336 336 335 334 333 333 332 332 335 335 336 338 337 336 335 337 337 334 333 334 334 335 334 334 333 333 333 331 332 331 331 330 326 324
342 342 342 342 342 342 341 341 340 340 340 339 339 340 340 340 340 340 340 340 340 341 341 340 339 339 339 337 336 336 335 335 334 334 333 331 333 335 336 337 337 336 336 336 336 333 333 334 334 334 334 334 334 334 332 331 331 332 331 330 330 327
342 342 341 341 341 340 340 341 340 341 340 339 339 340 339 339 339 340 339 340 340 339 340 340 339 340 339 338 337 336 336 335 334 334 333 331 332 334 335 336 337 337 337 336 335 334 333 333 333 333 334 334 334 334 332 332 332 332 332 331 331 327
342 341 340 340 340 339 340 341 341 340 340 339 340 340 340 339 339 339 338 339 339 339 340 340 339 340 338 338 338 336 336 335 334 334 333 331 332 333 334 335 336 337 337 336 335 334 333 333 332 333 334 334 334 335 333 333 332 332 332 331 331 329
342 341 340 339 340 340 340 341 341 340 340 340 341 341 341 340 339 338 338 339 339 339 339 340 340 338 338 338 338 337 337 335 334 334 333 332 332 333 333 334 336 337 337 337 335 334 333 333 332 332 334 335 334 335 333 332 332 333 332 332 331 330
341 341 340 339 340 341 340 341 341 341 341 341 342 342 341 340 339 338 338 338 338 338 339 340 340 339 339 339 338 337 337 336 335 334 334 333 332 332 332 333 335 336 337 337 336 334 333 333 332 332 334 335 333 334 333 333 334 333 332 332 332 331
342 341 341 340 340 341 341 343 343 342 342 342 342 341 341 340 339 338 337 337 336 337 339 339 340 340 340 340 339 337 336 336 336 335 335 334 334 333 332 333 334 335 336 336 336 335 334 334 334 333 335 334 333 334 334 334 334 334 333 333 333 332
344 342 343 342 340 341 342 343 343 342 341 341 342 341 340 339 339 339 338 338 335 335 337 338 339 339 339 340 339 338 337 337 336 336 336 335 335 334 332 333 334 334 335 336 336 335 334 334 334 334 334 334 333 334 334 334 335 334 334 333 333 333
344 343 344 343 341 342 343 343 342 341 340 340 342 341 340 337 338 338 337 337 336 336 336 336 338 339 338 339 339 338 338 337 336 336 336 336 335 335 333 332 334 333 333 334 335 336 334 334 335 334 335 334 334 335 335 335 335 334 334 333 333 333
344 344 344 343 343 342 342 343 342 341 340 341 341 341 340 338 338 338 337 337 336 337 337 337 339 340 340 340 339 339 338 336 336 336 335 336 335 335 334 333 333 334 333 334 334 334 334 334 334 333 334 335 335 336 335 336 335 335 335 333 333 333
343 344 343 343 342 341 342 342 341 341 340 340 341 341 340 339 339 338 338 336 335 337 338 340 341 341 340 340 339 339 338 336 335 336 336 336 336 336 335 335 334 333 333 334 333 331 332 333 333 332 333 333 335 335 335 336 335 335 334 333 334 333
343 342 341 342 341 341 341 341 341 340 339 340 340 340 339 339 340 339 338 336 336 338 339 340 340 340 340 339 339 339 338 336 335 336 337 337 336 335 335 335 335 334 334 334 332 332 332 332 331 331 332 332 334 336 335 336 335 335 334 333 334 333
342 340 340 340 341 341 341 341 340 339 340 339 339 339 339 339 339 338 337 337 337 338 338 338 338 339 339 339 339 338 337 337 336 336 336 337 336 335 335 334 335 334 334 334 333 333 333 332 331 331 332 332 334 336 336 336 335 334 334 333 333 333
340 340 339 340 340 340 341 340 340 340 340 340 339 338 338 338 337 337 337 337 338 337 337 337 337 338 338 339 338 337 336 336 336 336 336 336 336 335 335 335 335 334 334 334 334 334 333 332 332 332 333 334 335 335 335 335 335 335 334 334 333 333
339 339 339 339 338 339 340 340 340 340 341 342 341 339 338 338 338 338 337 337 338 337 337 337 337 337 338 337 337 337 335 335 336 337 336 336 336 336 335 335 334 333 334 334 333 334 334 332 332 332 333 335 336 335 335 335 335 335 334 334 333 333
338 338 339 338 338 338 339 340 339 340 341 341 341 339 339 338 338 338 337 337 337 337 337 336 336 337 337 337 336 337 336 335 336 337 337 336 337 336 336 335 334 333 334 334 332 334 334 332 332 331 332 335 336 335 335 335 335 335 334 334 334 333
338 338 338 338 338 338 339 339 339 340 341 341 340 339 338 337 338 338 337 338 338 337 337 336 336 336 337 338 337 337 337 336 335 336 336 336 336 336 336 335 334 333 333 334 333 333 333 332 332 331 332 335 337 336 335 335 335 335 334 334 334 333
337 338 338 338 338 338 339 339 339 340 340 340 340 339 338 338 339 338 338 338 338 338 338 337 337 337 338 338 338 337 337 337 336 335 335 336 335 335 336 335 335 333 333 333 333 333 333 332 332 331 332 334 335 336 335 335 336 336 334 333 334 334
336 336 336 337 338 337 338 339 338 339 338 338 339 339 339 339 339 338 338 338 338 339 338 338 338 338 338 338 338 337 337 337 337 336 335 335 335 335 335 335 335 335 333 333 333 333 333 332 331 332 332 332 333 334 335 335 336 336 335 334 333 333
333 334 334 334 336 337 337 337 338 338 338 338 338 338 338 339 339 339 339 338 339 339 339 338 338 339 338 337 337 337 337 337 337 336 335 335 335 335 335 335 335 335 333 333 333 333 333 331 331 331 331 330 332 335 335 334 334 334 335 335 334 333
330 331 331 332 333 335 336 337 337 337 337 338 337 337 337 338 338 338 338 337 337 337 338 337 337 338 337 337 336 335 336 337 337 336 335 335 335 334 335 335 335 334 333 332 333 333 332 332 331 330 330 329 331 335 336 334 333 333 335 336 335 333
328 328 329 329 331 332 333 335 336 336 336 336 336 336 336 336 336 336 336 336 335 335 336 335 335 336 337 337 336 335 334 335 336 336 335 335 335 334 334 334 334 335 334 333 333 333 332 332 332 330 331 332 334 335 335 334 334 334 335 334 334 334
325 326 326 327 329 330 331 332 333 334 334 335 335 335 335 335 335 335 335 335 335 335 335 334 334 335 336 336 336 334 333 333 335 335 334 335 334 334 334 334 334 335 335 334 333 332 332 333 332 331 331 333 335 335 335 334 334 334 334 333 333 335
324 324 325 325 326 328 329 329 329 331 332 333 333 334 334 335 335 334 334 334 334 335 335 334 333 333 334 334 335 334 333 332 334 334 335 334 334 333 333 333 334 334 334 335 334 333 333 334 333 332 332 333 335 335 334 334 333 333 334 333 333 334
323 323 324 324 325 326 326 326 327 328 328 328 329 330 332 333 334 334 334 334 334 334 335 334 334 333 333 333 334 334 334 333 333 334 334 334 334 333 332 333 334 334 334 335 334 334 334 334 333 333 333 333 334 335 334 333 334 334 333 333 333 332
322 322 322 323 324 324 324 325 325 325 324 325 325 327 329 330 331 332 333 334 334 334 334 334 334 333 332 333 333 334 334 334 334 334 334 334 334 333 333 332 334 334 334 334 334 334 334 334 334 333 333 333 333 334 333 332 333 333 332 333 333 333
321 321 321 322 322 322 322 323 323 322 322 323 324 325 326 327 328 329 330 331 333 333 332 333 334 334 332 332 333 333 333 333 333 333 334 334 334 334 333 333 333 334 334 335 334 334 334 334 334 333 333 333 333 334 332 331 332 334 332 332 333 332
320 320 320 320 321 321 321 321 321 321 321 321 322 323 324 325 325 326 326 328 330 331 332 332 333 333 333 332 332 332 333 333 333 332 333 333 333 334 334 334 334 334 334 334 334 334 334 333 334 333 333 333 333 333 332 333 334 334 332 331 331 331
319 319 319 319 320 320 320 320 320 321 320 320 321 321 322 323 323 323 324 325 326 328 329 330 332 333 333 332 332 332 332 332 332 332 333 332 332 333 334 334 334 334 334 334 333 333 333 333 333 333 334 334 334 333 333 334 334 333 332 331 331 330
Wind_Speed
14 13 13 11 10 10 10 10 9 10 10 11 12 12 11 11 9 9 8 9 9 8 5 4 4 3 5 8 9 8 8 10 12 9 7 6 5 4 4 5 5 7 8 8 11 18 20 19 16 14 13 13 12 13 11 10 11 10 11 11 11 14
14 14 14 12 10 10 10 8 7 8 9 9 11 11 10 10 9 8 7 9 9 7 5 4 4 3 3 7 10 9 9 10 12 10 8 6 5 4 5 5 6 7 9 10 14 18 18 16 14 12 11 10 10 11 10 11 14 13 13 11 11 13
16 16 15 13 11 10 9 9 9 9 9 8 10 10 10 9 9 8 7 9 9 9 8 6 5 3 3 5 7 9 9 11 12 10 8 6 5 4 5 7 6 7 9 11 14 16 16 14 12 10 9 8 10 10 9 10 12 11 11 9 10 12
18 18 16 14 13 13 11 12 13 11 11 11 12 12 12 12 13 12 11 12 11 10 10 9 8 5 6 7 5 8 9 10 12 11 9 6 5 5 5 8 8 7 8 8 11 10 7 7 6 6 7 8 9 10 8 8 9 9 9 8 10 12
18 18 18 17 18 17 16 17 17 15 15 15 15 14 13 15 17 16 15 14 12 11 9 11 12 11 10 8 5 6 8 11 13 12 10 7 6 6 6 9 9 8 7 7 8 10 7 1 2 1 4 5 6 8 8 10 11 11 9 8 10 12
18 18 17 19 20 18 17 18 19 18 18 17 17 15 16 17 17 17 17 16 13 11 9 12 15 15 14 10 7 6 6 12 14 12 11 8 6 7 7 9 11 10 7 6 8 11 10 4 2 3 5 5 7 8 9 11 12 8 5 5 9 11
18 18 17 18 19 18 18 20 20 20 20 20 19 18 18 18 16 16 16 16 15 12 11 14 16 16 15 13 11 9 6 10 13 13 11 9 8 9 8 9 11 10 7 8 10 9 9 6 5 6 7 7 7 7 8 10 8 4 2 4 8 10
18 18 17 17 18 19 20 20 19 20 21 21 20 19 18 17 16 14 15 16 16 14 13 14 14 15 16 15 14 13 10 10 11 11 12 13 12 11 10 11 11 11 10 10 9 9 8 8 7 6 7 7 6 6 7 9 7 5 5 6 8 9
18 17 17 16 15 17 18 18 17 18 18 19 20 19 18 16 14 13 14 16 16 15 14 14 14 15 17 16 16 15 14 12 11 10 12 13 13 13 12 13 12 12 12 11 10 10 9 9 7 7 7 7 7 6 7 8 7 10 9 8 8 7
16 16 15 16 15 15 17 17 16 16 16 17 18 19 18 16 14 14 15 16 16 15 15 16 15 15 16 16 16 16 16 16 14 12 11 12 13 14 14 14 14 13 13 13 12 11 10 9 9 9 8 8 8 6 7 6 7 13 12 9 7 4
15 16 15 15 15 15 16 15 14 14 15 16 17 17 17 16 16 15 15 17 18 17 16 16 15 14 14 16 16 16 17 17 17 16 15 14 13 14 15 15 14 14 14 13 12 12 10 10 11 11 9 8 8 7 8 6 6 11 10 8 5 3
14 16 15 14 15 15 14 14 13 12 13 13 13 14 13 14 16 15 16 18 18 17 16 15 15 13 13 15 15 15 17 17 17 16 16 17 13 13 15 15 14 14 14 14 13 12 11 12 13 12 10 10 9 9 8 6 6 8 8 7 4 4
12 13 13 13 14 15 14 13 12 11 11 11 11 11 12 13 13 13 15 17 16 15 15 15 15 13 12 13 14 14 15 16 16 15 15 17 15 13 14 15 15 15 14 15 15 14 12 13 14 12 11 11 10 9 9 8 7 7 7 7 6 4
11 12 12 12 14 15 14 12 10 10 11 11 12 12 14 15 14 14 17 20 18 16 16 16 15 13 11 11 12 13 13 14 15 15 15 15 15 15 14 13 16 17 15 14 13 13 13 14 13 12 10 10 9 9 9 8 8 9 7 8 8 5
8 11 11 11 14 14 12 11 9 10 11 12 13 13 14 15 15 15 18 21 20 17 17 16 14 13 12 11 12 12 12 13 14 15 17 16 15 18 18 13 14 18 17 15 13 13 14 15 12 10 9 9 9 10 9 7 8 9 8 9 9 8
6 8 9 9 11 11 10 10 9 9 9 10 12 13 14 14 13 11 11 14 13 11 13 13 12 11 11 11 10 10 12 13 14 15 16 18 18 19 20 15 12 16 20 18 14 14 17 16 13 10 10 9 8 9 9 8 9 10 9 9 9 9
5 7 7 7 9 9 9 9 9 8 8 9 11 11 12 11 9 8 5 3 2 2 7 10 11 12 11 12 11 11 12 13 15 16 16 18 20 20 21 19 15 15 19 20 17 16 19 18 15 12 11 10 9 8 9 10 10 10 10 10 9 10
6 5 5 4 5 7 7 8 9 8 8 9 10 10 10 9 6 7 10 11 6 2 4 8 11 13 12 12 13 13 14 16 16 17 17 18 20 21 22 23 21 18 16 17 17 16 17 18 18 15 12 11 11 10 10 11 12 11 11 10 10 11
6 4 3 3 2 3 5 7 8 8 9 9 10 10 9 8 7 8 7 6 5 6 5 7 10 11 12 11 12 13 14 17 18 18 18 17 19 21 22 23 23 21 18 16 16 15 17 18 17 14 13 14 13 12 11 11 12 13 13 11 11 12
7 6 4 3 2 2 3 6 7 8 9 7 8 10 9 7 6 8 8 4 4 7 8 10 11 12 13 12 13 14 13 15 17 18 19 18 19 21 22 23 22 21 19 17 18 18 16 15 13 14 16 17 14 12 11 11 12 13 13 12 12 12
8 7 6 4 2 1 3 5 6 6 6 4 6 9 9 8 7 6 5 4 5 8 11 13 14 13 14 13 13 14 14 14 16 18 20 20 20 21 21 23 23 21 19 18 20 20 16 13 13 15 16 14 13 12 11 12 12 13 13 12 13 13
8 7 7 5 3 3 4 4 5 5 5 5 6 8 9 8 8 6 6 7 8 9 11 13 14 13 13 14 14 15 15 16 18 19 20 20 21 20 20 22 23 21 19 19 20 19 18 15 14 15 13 8 8 9 10 11 12 13 13 12 13 14
9 7 7 5 4 5 5 5 4 4 4 3 5 8 9 9 8 8 9 9 9 10 12 14 14 14 14 15 15 15 17 17 19 19 19 19 20 19 20 20 20 21 20 19 20 20 20 18 15 14 10 5 4 4 5 9 12 14 15 14 13 14
9 7 7 6 5 5 5 5 4 4 3 2 4 6 8 8 9 10 10 10 10 12 14 15 16 16 15 15 15 15 17 18 19 20 20 20 20 20 21 22 20 21 21 18 18 22 22 20 17 14 9 3 3 3 3 7 11 14 16 15 14 15
10 9 8 7 7 6 6 6 5 4 3 3 4 5 7 8 8 10 11 10 10 11 13 15 16 16 16 16 16 16 18 20 20 21 23 23 23 21 22 23 23 23 23 22 20 21 21 21 21 21 16 5 4 2 3 6 8 9 14 16 15 15
13 12 10 10 9 8 8 8 6 5 5 4 4 5 8 8 8 10 11 10 11 11 12 13 14 15 16 17 19 19 19 21 21 21 23 24 25 24 23 23 23 24 25 26 23 19 18 20 22 25 22 12 7 4 2 7 5 2 8 14 15 15
14 13 13 13 12 10 10 9 8 7 7 7 6 6 7 8 9 11 12 11 12 12 13 13 14 15 17 18 19 19 21 21 21 22 23 24 26 26 25 23 22 24 26 26 24 20 20 20 19 21 23 18 12 8 6 8 5 2 3 8 13 15
14 14 14 14 14 13 11 11 10 9 9 9 8 8 8 9 10 10 11 12 11 12 13 13 15 16 17 19 18 19 22 21 21 23 23 24 26 26 26 24 22 23 25 24 25 24 22 20 17 16 20 21 17 12 8 8 8 8 4 3 7 10
16 15 15 15 15 14 13 12 11 11 11 11 11 11 11 12 12 12 12 12 12 13 14 14 15 16 16 18 19 19 22 22 21 22 24 25 25 26 26 26 24 24 24 23 25 26 23 20 19 18 19 22 20 14 10 10 11 11 7 4 4 5
17 16 16 15 15 16 15 15 14 14 14 13 13 13 14 14 14 15 14 14 14 14 15 15 15 16 15 16 18 19 20 22 21 22 24 25 25 26 27 27 26 25 25 24 25 25 24 21 21 21 20 20 18 14 10 9 11 11 7 4 3 3
16 15 15 15 16 16 16 16 16 16 16 16 16 15 15 15 15 16 16 15 15 15 15 15 15 16 16 16 17 17 18 19 19 21 23 24 25 26 27 28 28 27 25 25 26 25 23 23 21 22 22 20 18 16 14 10 11 13 9 6 4 3
14 14 14 15 16 17 17 17 17 18 18 17 17 17 16 16 17 18 17 17 16 15 15 17 17 17 16 15 15 14 16 17 18 19 21 22 24 26 26 28 29 28 25 25 27 26 24 24 23 22 23 22 18 17 19 17 15 15 14 11 9 4
14 14 14 14 14 15 16 17 18 18 19 19 19 18 17 17 18 20 19 17 17 16 16 17 18 18 17 15 13 12 14 16 16 17 19 19 21 23 25 26 28 28 26 25 26 27 27 27 26 26 26 24 22 19 20 20 17 17 15 13 11 7
13 13 13 13 13 14 15 15 16 18 19 19 19 19 18 18 19 21 21 19 18 18 18 18 17 18 18 16 15 14 14 15 15 15 17 18 19 21 22 24 26 25 25 26 26 27 28 28 28 28 26 25 25 23 21 19 18 19 18 14 13 10
13 13 12 10 11 12 13 13 15 16 17 18 17 17 17 18 19 21 22 21 20 20 20 20 17 17 19 18 17 17 16 16 16 15 16 18 20 21 20 22 25 24 23 24 25 26 28 28 29 29 28 26 25 24 21 21 22 22 20 17 15 13
14 15 15 12 12 14 13 13 13 13 16 17 16 17 17 18 20 21 21 22 23 23 21 21 19 18 18 18 18 19 18 18 18 17 17 18 20 21 19 20 23 23 23 23 23 25 28 29 29 29 29 28 26 24 23 23 24 24 22 21 18 15
14 16 17 15 15 16 16 16 16 14 17 18 17 17 18 19 20 20 20 21 23 24 23 22 21 19 19 20 20 19 19 18 19 19 18 18 19 20 21 22 24 23 24 24 23 25 28 29 29 29 28 28 27 25 25 24 24 25 24 22 21 17
Wind_Direction
135 135 130 129 126 132 143 147 153 151 148 155 165 170 173 178 178 174 171 173 176 169 170 149 151 197 200 199 202 209 203 185 181 179 174 162 151 150 151 138 109 89 83 86 107 118 120 119 116 112 103 99 95 87 86 98 108 109 112 115 117 114
136 138 132 128 118 121 131 136 146 147 146 155 168 181 185 188 187 182 183 183 182 178 173 136 149 189 198 200 204 209 211 199 189 186 183 173 168 165 159 150 121 99 95 98 113 119 115 110 105 102 99 96 85 76 88 109 113 112 116 120 120 117
139 140 132 122 113 119 128 141 148 145 153 161 168 182 185 187 191 187 191 193 195 196 181 161 177 202 216 216 205 204 208 205 198 191 186 183 186 180 167 159 136 114 114 110 117 119 111 105 96 88 89 88 87 89 97 109 115 119 123 124 120 119
146 143 139 129 122 137 157 159 154 155 167 174 177 180 177 185 194 192 197 204 208 206 187 170 181 190 208 233 222 205 208 205 203 195 187 194 205 200 179 168 155 144 147 140 138 139 125 103 76 69 88 95 104 115 115 118 123 123 122 120 118 121
149 146 147 146 145 161 176 167 160 168 175 180 186 183 182 193 194 189 196 208 209 205 194 176 179 180 193 224 233 216 208 202 205 198 191 197 216 219 193 178 171 170 173 172 177 193 203 199 347 20 102 112 134 146 135 131 134 131 130 123 120 125
153 150 153 158 162 169 176 171 169 177 181 184 190 187 192 205 201 191 195 208 210 202 195 186 185 184 188 195 203 221 206 195 200 200 199 194 219 234 207 191 186 184 188 217 234 216 201 199 223 179 148 150 159 161 147 142 145 140 141 133 130 133
162 158 161 167 170 173 178 180 179 183 186 189 193 193 197 208 209 200 196 203 209 206 202 199 194 191 193 188 190 211 205 192 193 198 204 193 212 232 217 207 205 205 213 245 248 214 196 200 197 174 169 183 175 164 152 153 161 157 151 145 140 140
165 163 166 171 176 182 185 184 185 188 191 192 194 197 200 209 215 212 207 205 207 208 208 207 204 199 199 194 191 197 195 195 193 194 203 198 210 222 219 218 217 221 228 246 236 203 205 202 195 191 184 185 174 169 157 151 167 177 160 144 133 134
168 169 166 170 181 189 191 189 191 194 193 195 197 199 199 206 216 222 221 214 209 208 207 207 208 206 203 199 194 191 186 188 190 195 205 211 221 219 219 222 219 224 226 238 230 207 210 196 194 204 191 184 172 165 151 147 170 173 161 150 137 130
169 175 174 177 186 191 197 197 197 199 194 192 198 198 198 203 211 223 228 222 216 212 211 210 210 210 205 200 197 195 187 183 183 189 201 220 238 227 221 226 223 225 228 232 226 216 210 192 200 207 197 190 178 167 161 165 170 161 158 154 144 142
170 178 182 184 188 189 197 201 201 205 199 193 197 198 200 204 205 215 222 220 216 212 212 212 209 210 208 204 201 201 196 189 187 189 193 206 235 235 225 231 232 231 234 235 228 219 213 204 208 208 202 193 178 177 179 183 161 152 162 162 154 169
175 179 179 179 186 188 191 198 202 205 202 196 200 206 210 211 211 216 219 218 215 210 208 205 202 205 209 208 203 202 201 198 198 201 197 193 211 235 233 235 238 238 239 243 235 219 215 218 216 208 201 189 177 183 188 187 164 151 157 159 168 175
180 180 178 178 184 188 188 192 198 200 202 201 205 217 226 226 226 227 219 217 218 213 211 206 202 200 203 206 203 203 204 203 204 206 205 193 194 221 236 236 237 241 246 248 237 218 221 229 223 214 201 185 180 189 188 183 177 168 156 152 171 177
184 182 182 182 179 185 187 185 194 201 205 210 213 220 228 232 234 225 209 205 206 205 209 210 202 196 198 206 206 208 211 211 208 205 208 204 198 205 219 234 238 240 247 251 239 221 231 239 226 216 200 184 195 197 182 179 180 178 170 163 170 176
181 179 180 186 182 184 188 188 200 210 213 219 223 227 230 233 231 217 201 198 198 193 197 205 202 198 196 200 206 209 212 214 213 211 209 209 209 205 206 223 237 238 240 242 236 226 234 239 231 222 201 191 206 196 177 180 180 177 180 177 175 175
172 175 175 189 190 188 194 200 209 218 225 229 235 241 241 240 238 231 213 206 204 186 186 195 199 205 201 200 210 216 217 215 215 219 213 207 213 211 206 212 230 240 240 238 235 230 232 233 233 227 206 205 216 195 184 192 183 181 187 185 182 182
163 172 177 191 196 198 205 213 220 228 236 239 245 252 257 261 271 288 316 339 308 183 183 190 191 199 199 198 207 217 224 221 216 220 219 212 215 214 209 210 218 231 240 242 240 234 232 229 228 222 204 207 216 197 194 196 187 188 190 189 189 188
149 157 170 178 194 214 220 226 233 239 247 250 251 256 270 283 293 316 354 8 344 273 213 207 197 197 197 195 199 207 216 217 216 219 221 217 217 216 213 214 217 217 225 238 241 246 246 232 224 221 207 209 212 202 202 198 193 195 189 189 197 194
130 129 136 129 156 229 244 246 241 240 246 255 261 264 276 288 286 286 305 322 276 235 221 215 204 205 207 201 198 202 212 217 216 218 221 220 219 218 218 220 223 220 221 227 230 247 259 242 227 222 215 217 212 203 205 199 198 202 194 192 202 200
108 104 99 100 132 230 260 262 251 244 246 249 261 266 272 278 279 270 262 267 238 215 220 222 216 214 214 208 201 204 214 222 220 219 223 223 220 220 222 224 227 229 229 228 221 227 248 251 243 234 224 219 209 201 205 201 200 206 204 200 204 204
90 87 75 68 55 330 306 295 284 276 272 266 263 271 278 271 259 252 246 258 246 229 237 239 231 222 219 220 219 218 220 226 227 226 226 226 224 223 224 224 229 234 235 234 225 219 226 238 241 238 229 216 204 201 206 203 205 211 211 206 207 209
68 69 57 42 22 358 336 321 317 315 311 302 285 281 284 276 261 252 250 260 259 251 253 252 245 238 234 236 237 236 233 231 231 230 229 228 226 226 224 223 227 233 233 236 231 219 218 218 219 225 219 200 194 205 212 212 216 217 215 211 209 210
51 48 44 32 8 1 346 329 328 323 314 304 298 294 288 284 282 277 271 267 259 259 263 262 259 257 253 249 245 245 244 239 232 230 231 227 225 225 224 223 226 228 227 232 234 228 222 215 217 224 214 191 182 191 217 222 222 221 216 213 215 216
48 41 40 32 7 359 341 328 330 315 299 280 290 303 296 284 285 286 282 275 263 260 264 265 265 265 264 260 254 250 249 245 237 233 232 229 224 221 222 223 223 223 221 222 229 232 227 218 222 231 223 193 154 171 219 210 213 222 218 213 219 221
46 44 40 31 10 356 340 329 330 317 305 286 277 295 297 287 285 284 282 281 275 267 265 265 266 265 264 261 256 251 249 249 245 240 238 236 232 228 226 226 223 220 218 216 221 229 230 226 225 226 225 205 140 192 235 177 183 213 216 215 221 220
41 40 33 25 12 360 348 337 334 330 325 316 301 293 294 292 287 283 283 283 281 276 272 272 269 263 259 258 256 252 248 248 250 248 244 241 239 235 229 227 225 222 221 219 219 223 228 230 228 229 234 228 197 210 177 152 156 188 208 214 220 216
34 33 24 20 15 7 358 348 341 337 331 323 318 306 299 295 287 286 287 283 281 279 276 274 271 266 262 260 260 256 251 249 251 252 252 247 241 237 233 230 227 225 224 219 215 217 222 228 230 234 241 238 224 218 171 155 157 133 187 216 219 216
27 26 18 15 13 8 360 351 345 342 339 335 327 318 311 302 294 292 290 285 286 283 278 274 271 269 268 268 266 261 257 253 250 251 256 253 245 241 239 234 230 227 224 218 216 218 220 223 226 231 240 239 232 227 199 179 174 174 190 210 205 210
25 22 15 10 7 4 359 352 349 347 345 342 338 333 324 315 309 305 298 294 293 288 284 284 281 277 275 276 275 271 265 258 254 253 254 252 248 247 242 235 231 228 223 219 220 223 219 217 220 226 235 234 228 227 222 211 196 191 203 197 179 192
24 18 13 9 4 2 0 358 355 353 348 342 340 337 330 325 321 317 311 306 303 297 293 294 291 284 278 279 283 282 275 264 260 262 258 253 251 249 245 239 234 228 223 219 219 222 221 218 220 221 226 228 221 215 215 216 204 197 198 194 196 192
25 18 13 9 5 4 3 3 0 357 354 348 344 338 331 326 320 317 316 316 315 312 309 308 300 291 286 286 286 286 285 275 268 269 266 262 257 251 248 245 237 230 224 221 219 222 220 217 217 216 219 226 223 215 213 212 204 198 195 190 194 208
28 22 16 10 6 5 4 3 2 360 357 353 348 342 334 329 325 323 323 323 324 322 317 314 307 300 297 295 290 287 290 285 275 272 271 268 262 254 252 249 240 230 223 219 220 223 221 217 216 216 219 224 224 223 221 219 214 206 201 193 187 192
27 21 18 13 10 9 5 2 1 1 358 354 351 347 341 337 336 336 334 330 327 323 317 313 311 309 305 300 296 289 288 287 280 274 273 274 270 261 257 250 239 230 223 219 220 223 224 223 221 221 223 221 219 223 225 224 221 215 210 199 194 197
24 23 21 19 17 13 7 4 2 359 356 352 351 348 344 342 340 340 340 335 327 321 317 314 312 312 311 305 299 290 284 284 281 275 273 275 274 269 262 249 236 230 225 221 222 223 222 222 224 225 225 222 221 222 224 228 226 217 211 203 200 197
22 20 18 21 26 19 13 10 5 1 358 353 350 346 341 341 341 340 340 338 333 327 321 317 313 315 316 311 302 294 287 283 281 279 275 273 271 269 262 246 236 234 230 223 222 223 221 220 221 223 222 224 227 226 223 226 227 220 213 212 211 197
22 13 8 14 28 27 24 14 2 3 5 357 352 349 343 341 341 339 338 336 335 335 332 326 321 320 320 317 309 300 296 292 286 282 276 272 271 268 260 245 235 232 229 224 221 222 223 223 222 221 221 222 227 228 224 225 227 224 219 218 216 203
27 14 9 13 24 26 22 11 360 2 8 2 358 355 349 345 343 340 338 335 334 334 335 334 331 325 321 320 316 308 305 301 293 288 283 277 276 271 261 249 240 234 233 231 227 224 224 224 223 220 219 220 222 224 224 225 228 228 225 221 218 216